RH
21 21 20 19 19 19 18 19 20 21 22 23 24 26 27 28 30 32 33 34 35 35 36 37 37 37 38 37 37 35 33 33 34 36 37 37 36 36 35 34 33 33 32 32 32 33 34 36 38 38 36 34 33 33 34 36 37 39 40 38 36 35 36 35 33 31 28 27 26 25 24 24 28 34 41 43 43 43 44 43 41 39 36 36 36 37
21 20 19 19 19 20 20 21 23 24 25 26 27 29 31 32 33 34 36 36 37 37 38 38 39 39 39 38 37 36 34 34 35 36 37 36 35 34 34 33 33 33 32 33 33 33 34 34 34 34 34 34 35 36 38 39 40 40 39 38 38 40 40 36 32 29 27 27 27 26 26 25 27 31 35 37 38 40 42 42 40 36 32 31 31 31
20 20 20 20 21 22 22 23 25 27 29 30 31 32 34 35 36 37 39 39 39 39 39 39 39 39 39 38 37 36 35 34 34 34 35 34 34 34 33 34 34 34 34 35 35 35 35 35 35 36 37 38 39 40 40 41 40 39 36 36 37 39 38 35 32 29 28 27 27 27 27 27 27 28 29 30 32 35 37 37 35 32 30 29 30 31
21 21 22 23 24 25 26 27 28 29 32 33 34 35 36 38 40 41 42 42 41 41 41 40 40 39 39 38 37 36 35 34 33 32 33 33 33 34 34 34 35 36 36 37 38 38 38 39 39 40 41 41 41 41 41 40 39 37 35 34 35 35 33 31 30 28 27 27 27 27 27 26 26 26 26 27 30 32 33 31 30 29 28 29 33 36
23 24 24 25 27 28 29 30 31 33 34 35 37 38 40 42 44 45 45 44 43 43 42 41 40 40 39 37 36 34 33 32 32 32 32 33 33 33 33 34 35 37 38 39 41 41 42 42 42 42 42 41 41 41 40 38 37 36 34 33 33 32 31 30 29 27 26 26 26 26 26 26 26 26 26 28 30 31 30 29 28 28 28 32 36 40
25 26 28 29 31 32 32 33 34 36 37 39 41 42 45 46 47 47 46 45 44 43 42 40 39 37 36 34 34 33 33 33 33 33 33 33 32 31 32 33 35 38 40 41 42 42 42 42 41 41 40 40 39 38 37 36 35 34 32 32 31 31 30 29 29 28 27 27 27 26 27 26 26 26 26 28 29 29 28 29 29 29 30 35 39 43
28 29 32 34 35 35 35 36 37 40 43 45 46 47 47 47 47 46 45 43 42 40 38 36 34 33 32 32 33 33 34 34 34 33 33 32 31 31 32 34 36 38 40 41 41 40 40 39 38 37 37 37 36 36 35 34 33 32 31 31 31 31 30 30 30 30 29 29 28 28 27 27 26 26 26 27 27 28 28 30 31 33 35 38 42 44
31 32 34 36 37 37 38 40 42 45 48 49 49 49 47 45 44 42 40 38 36 34 33 32 31 30 31 32 34 34 35 35 34 33 33 32 32 32 32 34 36 38 39 39 38 37 36 35 35 35 35 35 34 33 33 32 32 32 33 32 32 32 32 32 32 32 31 31 31 30 29 28 28 27 27 27 29 30 32 34 36 38 40 42 45 45
35 36 36 38 40 42 44 46 48 49 50 50 50 48 46 43 40 37 34 32 31 30 30 31 31 32 32 34 35 36 36 36 35 34 33 32 32 32 33 34 35 36 36 35 35 34 34 34 34 34 33 33 32 32 32 32 33 34 34 34 34 34 34 34 33 33 33 33 32 32 31 30 29 28 28 29 32 34 37 40 42 43 43 45 47 47
39 40 40 42 45 49 51 52 50 48 48 48 47 45 43 41 38 34 31 29 29 29 31 32 34 35 35 36 37 37 37 36 35 34 33 32 32 32 33 34 34 35 34 34 34 34 34 34 34 34 33 32 31 32 32 33 34 35 35 35 36 36 36 35 35 35 34 34 34 33 32 31 31 31 32 32 34 38 42 45 46 46 45 47 48 48
42 44 46 49 50 50 51 51 48 46 45 44 43 41 39 38 37 35 33 30 30 31 33 36 38 39 40 39 39 38 38 37 35 33 33 32 33 33 35 36 37 37 37 37 36 36 36 36 35 34 33 32 32 32 33 34 35 36 37 37 38 38 38 37 37 36 36 36 35 35 34 33 34 35 36 36 38 42 45 47 48 48 48 48 48 48
47 50 52 52 52 50 48 47 46 45 44 43 42 40 38 36 35 35 35 34 34 35 38 40 41 42 43 43 42 40 39 37 36 35 35 35 37 39 41 41 42 42 42 41 41 40 40 39 38 36 35 34 33 34 35 36 37 38 39 39 40 40 39 39 38 38 37 37 37 37 36 35 36 36 36 37 40 43 46 47 49 49 50 50 49 48
52 53 53 52 50 49 48 48 47 46 45 44 42 40 38 35 34 35 36 37 39 41 44 45 45 44 45 44 44 43 41 39 39 39 40 43 45 47 47 47 47 47 48 47 47 46 45 43 41 39 37 35 35 35 35 37 38 39 40 41 41 42 42 41 41 40 39 38 39 40 40 40 38 37 36 37 39 42 45 48 49 50 50 50 49 48
53 53 52 51 50 50 50 50 49 47 45 43 41 39 36 35 35 36 39 42 45 47 48 48 48 47 47 47 46 46 45 45 46 47 48 51 52 53 53 52 52 53 54 54 53 52 51 49 46 43 39 37 35 35 35 37 38 40 41 42 43 44 44 44 43 42 40 41 43 45 45 44 43 41 40 40 41 43 44 45 47 48 48 48 48 47
53 52 52 52 51 50 50 49 48 46 43 40 38 37 35 36 38 41 45 47 49 51 52 51 51 51 51 51 51 52 53 54 54 54 55 55 56 57 57 57 57 58 58 59 58 57 56 54 51 47 43 39 37 36 36 38 39 41 42 44 45 45 46 45 44 43 41 43 45 47 47 47 47 47 47 45 44 43 42 42 42 43 45 45 45 45
53 53 53 52 51 50 49 47 45 43 40 38 37 36 37 39 42 46 50 53 54 55 56 57 56 55 54 56 58 60 62 62 61 59 58 58 59 60 62 62 62 61 62 63 63 62 61 58 55 52 48 44 41 39 39 40 41 42 43 44 45 46 46 47 47 46 45 46 47 49 49 49 49 48 48 47 45 43 41 40 39 40 41 42 42 43
53 53 52 52 50 48 45 43 42 40 39 37 37 38 40 44 49 53 56 58 59 60 61 62 63 62 60 60 63 66 68 67 65 62 60 61 62 64 66 67 66 65 65 66 66 66 64 62 59 56 53 49 46 44 43 42 43 43 44 45 46 47 48 48 49 50 50 51 51 50 50 50 50 51 51 50 49 47 45 42 40 39 39 40 40 40
52 51 51 49 47 45 42 41 40 39 38 38 39 42 46 51 55 58 60 61 63 65 66 66 67 67 67 66 66 68 69 69 67 65 64 64 65 66 68 69 69 68 68 68 68 67 66 65 63 60 57 54 51 49 47 46 46 46 47 48 48 50 50 51 53 54 54 54 54 54 54 55 57 59 60 60 60 58 55 51 47 44 42 40 39 38
50 49 47 46 44 42 40 40 39 39 39 41 44 48 52 56 58 61 63 64 66 68 69 69 70 70 70 69 69 69 70 71 70 69 67 66 67 68 70 71 71 71 70 71 70 69 66 65 64 62 60 58 55 52 50 49 49 48 49 50 50 51 52 54 55 57 58 58 59 60 60 62 63 64 66 66 67 66 64 61 57 53 48 43 40 38
48 46 45 44 43 42 41 40 40 41 43 46 50 54 57 59 61 63 64 66 67 68 70 70 70 70 71 71 71 71 72 73 72 70 68 67 67 69 72 73 73 72 71 71 70 69 67 66 66 65 64 61 58 55 52 51 50 50 49 49 49 50 51 53 56 58 61 62 62 63 64 64 64 65 66 68 68 69 69 69 66 62 57 49 44 40
46 44 42 42 42 42 41 40 42 44 48 53 56 59 62 63 64 65 66 68 69 70 70 70 71 71 71 72 73 73 74 75 73 71 68 67 67 69 73 74 74 72 70 70 70 70 69 68 68 67 66 63 60 57 54 53 52 51 50 50 50 50 51 54 57 60 62 63 65 65 66 66 67 68 69 70 72 73 74 74 72 69 64 56 49 44
44 43 41 41 42 42 41 43 46 50 56 60 63 65 66 67 68 68 69 70 70 70 70 70 70 71 72 72 72 73 74 75 74 72 69 68 68 69 72 73 72 71 69 69 70 70 71 70 70 69 67 65 63 60 57 55 54 52 51 51 51 52 54 57 60 62 64 66 67 68 70 72 73 74 76 76 76 76 76 76 74 72 69 62 54 48
43 42 42 41 41 42 44 48 53 58 63 66 68 69 70 70 70 71 71 71 71 71 70 70 70 71 72 72 72 73 73 73 73 71 70 68 68 69 72 73 72 71 69 70 71 72 71 70 69 69 68 67 65 62 58 55 54 53 53 54 56 58 60 62 64 65 66 68 69 71 73 74 76 78 78 78 78 77 76 75 75 74 71 65 58 52
42 42 42 42 43 46 50 56 61 66 69 70 71 72 72 72 72 72 72 72 72 72 71 71 71 72 73 73 73 72 72 72 71 71 70 70 71 72 73 73 72 71 70 71 72 72 71 70 70 70 70 68 65 61 56 54 55 56 58 61 63 65 67 68 69 70 71 72 73 75 76 77 78 78 78 77 76 75 75 74 74 73 71 66 59 54
43 42 43 45 48 53 59 65 69 71 73 74 74 74 74 74 74 74 74 74 74 74 74 74 74 73 73 73 72 71 71 70 70 70 70 71 72 72 73 73 73 72 71 72 72 72 72 71 71 71 70 68 64 60 55 56 58 61 64 67 69 71 73 74 76 76 77 77 78 79 79 79 79 77 76 74 73 73 74 74 73 72 70 65 59 54
43 44 46 51 56 62 66 70 73 74 75 76 76 76 76 75 75 75 75 75 76 76 76 75 74 73 73 72 71 70 69 68 69 70 71 73 74 74 73 73 74 74 74 73 73 73 72 71 71 70 69 66 61 57 56 58 61 65 68 71 73 75 76 77 78 79 79 80 81 80 80 80 78 77 76 75 75 75 75 74 73 71 67 63 57 52
44 47 52 58 63 67 70 73 75 76 77 77 77 77 77 76 76 76 76 76 76 76 76 75 74 73 73 72 72 71 70 69 69 71 73 75 75 75 74 75 75 75 74 73 72 71 70 69 68 68 65 61 58 57 59 62 66 69 72 73 75 77 78 79 79 80 80 80 80 80 79 78 78 77 77 77 76 76 75 73 71 68 64 60 55 51
49 54 60 64 68 71 74 77 78 78 78 78 78 78 77 77 76 76 76 77 77 76 75 75 74 74 74 74 73 72 71 71 71 72 75 77 77 76 75 75 75 74 71 69 67 65 63 62 61 60 58 57 58 61 64 67 70 73 75 76 77 78 79 80 80 80 80 79 79 79 79 78 77 77 76 76 75 73 72 70 67 64 60 57 53 50
57 62 68 71 74 76 77 78 79 79 79 79 79 78 77 76 76 76 77 77 76 76 75 76 76 75 75 75 75 75 73 72 72 73 76 77 77 76 75 74 73 70 67 64 62 60 57 55 55 55 56 59 63 66 69 72 74 76 78 79 80 80 80 80 80 80 79 79 78 78 77 75 73 72 71 70 69 68 66 64 62 59 56 54 51 48
65 70 73 75 77 79 79 80 80 80 80 79 79 78 77 77 77 77 77 77 77 77 76 77 77 77 77 77 77 76 74 73 73 75 76 77 77 76 75 74 71 68 65 63 61 58 55 53 54 56 60 64 68 71 73 76 78 79 80 80 81 81 80 80 79 78 77 76 74 72 70 68 66 65 64 63 62 61 60 59 58 56 55 53 51 49
72 75 77 78 79 79 80 80 80 80 79 79 79 78 78 78 78 78 78 78 78 78 78 78 79 79 79 79 79 78 75 74 74 76 77 77 77 76 75 73 71 68 66 65 64 62 59 56 57 60 64 68 71 74 77 79 80 81 81 81 81 80 79 77 74 72 69 67 65 64 63 62 61 60 59 58 58 57 57 57 57 56 56 54 52 50
76 78 79 79 80 80 80 80 79 79 78 78 79 79 79 79 79 79 79 79 79 79 78 79 80 80 80 80 80 79 77 76 76 77 78 78 77 76 75 74 72 71 70 69 68 68 67 64 62 63 66 70 73 77 79 80 81 81 82 81 79 76 73 70 67 65 63 62 60 60 59 59 58 57 56 56 56 56 57 57 57 57 57 55 54 52
78 79 79 79 79 80 79 79 79 78 78 79 79 80 80 80 80 81 80 80 80 79 78 79 80 80 81 81 80 80 79 78 77 78 78 77 77 76 76 75 75 74 73 72 72 72 73 71 69 67 68 71 75 78 80 81 81 82 81 78 75 72 70 71 71 71 69 66 63 60 57 56 56 56 55 55 56 57 58 58 58 58 57 56 54 52
79 79 79 79 79 79 78 79 79 79 80 80 80 81 81 81 81 81 81 80 80 79 78 79 79 80 81 80 80 80 79 79 78 78 78 77 77 77 76 76 76 76 76 75 75 75 76 75 73 71 70 73 76 79 81 81 81 80 77 75 73 73 74 76 77 78 77 75 73 69 64 59 57 56 56 56 57 58 58 58 58 58 57 56 54 51
79 78 78 79 79 79 79 79 79 80 80 81 81 81 81 81 81 81 81 81 80 80 79 79 79 80 80 80 80 80 80 79 79 78 78 77 77 77 76 76 76 77 77 77 77 77 78 77 76 75 73 75 77 80 82 81 79 76 74 74 76 77 78 79 80 80 80 80 79 78 75 70 64 59 56 57 57 59 59 58 58 57 56 55 54 51
78 78 78 79 79 79 79 80 80 80 81 81 81 81 81 81 81 81 81 81 81 81 81 80 80 80 80 81 81 81 81 81 80 79 79 78 78 78 77 77 77 77 78 79 79 78 79 79 78 76 75 77 78 80 81 79 76 75 76 76 77 78 79 80 81 81 81 82 81 81 80 79 75 69 60 57 57 59 60 59 58 57 56 56 54 51
78 78 78 79 79 80 80 80 81 81 81 81 82 82 81 81 81 81 81 81 81 81 81 81 81 81 81 81 81 81 82 82 81 80 80 80 79 79 79 79 78 78 78 79 80 80 79 79 79 78 76 78 80 80 79 76 75 76 77 78 78 79 80 81 81 82 82 82 82 81 82 81 80 76 67 61 58 58 59 59 59 58 57 57 56 53
78 78 79 80 80 80 81 81 81 81 81 82 82 82 81 81 81 81 81 81 81 82 82 82 82 82 82 82 82 82 82 82 81 81 81 81 81 80 81 81 80 80 80 80 81 81 80 79 79 78 77 79 80 80 78 74 75 77 78 79 80 80 81 81 81 82 82 82 82 81 81 81 81 79 72 64 59 58 58 60 60 60 59 59 57 55
79 79 79 80 81 81 81 81 82 82 82 82 82 82 82 81 81 81 82 82 82 82 82 82 82 82 82 81 81 81 81 81 81 81 81 81 81 81 81 81 81 81 81 81 81 81 80 78 77 78 78 79 80 79 76 75 77 78 79 80 81 81 81 80 80 81 82 82 82 82 82 81 81 81 79 71 64 59 58 59 61 61 61 61 60 58
79 80 80 81 81 82 82 82 82 82 82 82 82 82 82 82 82 82 82 82 82 82 83 83 82 82 81 80 80 81 81 81 81 81 81 82 82 82 81 81 81 81 81 81 81 80 79 77 77 78 79 80 79 76 73 76 78 79 80 81 82 82 81 80 80 80 80 80 81 82 83 82 82 82 82 80 76 70 63 60 60 62 62 62 62 62
80 80 80 81 82 82 82 82 82 82 82 82 82 82 82 82 82 82 82 82 82 83 83 83 82 82 81 80 80 80 80 81 81 81 82 82 82 82 82 81 81 81 81 80 79 76 74 75 76 78 79 79 77 74 74 77 79 79 81 82 83 83 82 82 81 80 78 77 78 79 81 82 82 82 82 82 82 80 75 65 61 61 64 64 65 66
81 81 81 81 82 82 82 82 82 82 82 82 82 82 82 82 82 82 82 82 83 83 83 83 83 82 81 81 80 80 80 80 81 81 82 83 83 83 82 82 82 81 81 79 76 74 73 75 77 78 78 77 75 73 75 78 79 80 81 83 83 83 83 82 81 81 80 79 79 78 76 79 80 80 79 78 78 76 73 66 62 62 64 66 68 70
81 81 82 82 82 82 82 82 82 82 82 82 82 82 82 82 82 82 82 82 82 83 83 83 83 82 82 82 81 81 80 80 80 81 82 83 83 82 82 82 82 81 81 78 75 74 76 77 77 78 78 76 74 73 77 79 80 81 82 82 82 82 82 82 81 81 81 81 81 80 79 76 74 73 76 74 72 70 66 64 62 63 65 67 69 71
81 82 82 82 82 82 82 82 82 82 82 82 82 82 82 82 82 82 82 82 83 83 83 83 83 82 82 82 82 82 81 81 81 81 82 83 83 82 82 82 82 81 81 77 76 76 77 78 77 77 77 75 73 74 78 80 82 82 82 82 81 81 82 82 82 82 82 82 82 82 83 80 74 68 70 77 81 79 69 64 62 63 65 68 71 72
82 82 82 82 82 82 82 82 82 82 81 81 82 82 83 83 83 82 82 82 83 83 83 83 83 82 82 82 82 82 82 82 82 82 83 83 82 82 82 82 81 80 78 76 76 77 78 78 78 77 77 74 73 73 77 80 81 81 80 80 80 81 82 82 82 82 83 83 83 82 82 83 77 71 69 77 81 82 76 67 63 62 64 68 72 74
82 82 82 82 82 82 82 82 82 81 81 81 81 82 82 83 83 83 82 83 83 83 83 83 83 82 82 82 82 83 83 83 83 83 83 83 82 82 82 82 81 80 76 76 76 77 77 78 78 77 76 72 71 72 76 79 79 78 76 77 79 80 81 81 81 82 82 83 83 82 81 78 73 69 68 71 74 76 74 65 61 61 62 66 70 74
81 82 82 82 82 82 82 81 81 81 81 81 81 81 82 82 83 83 83 83 83 83 83 83 83 83 83 83 83 83 83 82 83 83 83 82 82 82 81 82 81 79 77 76 76 77 77 77 77 76 73 70 69 70 73 74 74 74 74 76 78 79 80 81 82 82 83 83 83 81 77 75 73 71 69 68 67 66 65 64 63 61 59 63 67 71
81 81 82 82 82 81 81 81 81 81 82 82 82 81 82 82 83 83 83 83 83 83 83 83 83 83 83 83 83 83 82 82 83 83 83 83 82 82 82 82 80 78 76 75 75 75 75 74 73 72 70 69 68 68 68 69 70 72 75 77 79 80 82 83 83 83 83 83 83 83 83 82 79 75 72 70 69 68 67 66 65 63 58 60 64 67
81 81 82 82 81 81 81 81 81 82 82 82 82 82 82 82 83 82 83 83 83 83 83 83 83 83 83 83 83 83 82 83 83 83 83 83 83 82 82 82 80 77 74 72 71 70 70 70 69 69 69 69 69 68 68 69 71 73 77 78 79 81 83 83 83 83 83 83 83 83 84 84 81 77 73 69 68 67 67 66 65 62 58 58 60 63
81 81 81 81 81 80 81 81 81 82 82 82 82 82 82 83 83 83 83 83 83 83 83 83 83 82 82 83 83 83 83 83 83 83 83 83 83 83 82 81 78 75 72 70 69 68 67 67 67 67 69 70 71 71 71 73 74 76 77 78 80 81 82 83 83 83 83 83 84 84 84 84 81 78 74 70 67 65 65 65 64 62 59 57 58 60
81 81 81 81 81 80 81 81 82 82 82 82 82 82 82 83 83 83 83 83 83 83 83 83 83 82 82 82 83 83 83 83 83 83 83 83 83 83 82 79 76 74 72 70 69 68 67 67 67 68 69 71 73 74 74 76 77 78 78 80 81 81 82 83 83 84 84 84 84 84 84 83 82 79 75 71 67 64 62 62 62 61 59 57 57 59